Flag for Egypt Weather past 2 weeks in Al Jizah, Egypt

68 °F


Feels Like: 68 °F
Forecast: 57 / 80 °F
Wind: 2 mph from East

Location: Cairo Airport

Current Time: Nov 27, 2015 at 11:27:15 PM

Latest Report: Nov 27, 2015 at 11:00 PM

Visibility: 10 mi

Pressure: 30.09 "Hg

Humidity: 53%

Dew point: 50 °F

Location of Al JizahLocation

Historic Weather in Al Jizah — Graph


Al Jizah temperature yesterday

Maximum temperature yesterday: 79 °F (at 2:00 PM)
Minimum temperature yesterday: 63 °F (at 6:00 AM)
Average temperature yesterday: 70 °F

Past Weeks' High & Low Weather Summary

High81 °F (Nov 14, 2:00 PM)100% (Nov 21, 9:00 AM)30.18 "Hg (Nov 21, 9:00 AM)
Low57 °F (Nov 13, 5:00 AM)28% (Nov 27, 2:00 PM)29.80 "Hg (Nov 16, 1:00 PM)
Average68 °F64%30.00 "Hg
* Reported Nov 12 10:00 PM — Nov 27 10:00 PM, Al Jizah, Weather by CustomWeather, © 2015

Note: Actual official high and low records may vary slightly from our data, if they occured in-between our weather recording intervals... More about our weather records


Al Jizah weather history for previous 24 hours

Time TempWeatherWind HumidityBarometerVisibility
10:00 PM
Fri, Nov 27
68 °FClear.No wind53%30.09 "Hg10 mi
9:30 PM66 °FClear.No wind52%30.09 "Hg10 mi
9:00 PM68 °FClear.No wind49%30.09 "Hg10 mi
8:30 PM70 °FClear.No wind46%30.07 "Hg10 mi
8:00 PM70 °FClear.No wind46%30.07 "Hg10 mi
7:30 PM70 °FClear.No wind50%30.07 "Hg10 mi
7:00 PM72 °FClear.No wind50%30.07 "Hg10 mi
6:30 PM73 °FClear.No wind47%30.07 "Hg10 mi
6:00 PM73 °FClear.No wind47%30.04 "Hg10 mi
5:30 PM73 °FClear.3 mph47%30.04 "Hg10 mi
5:00 PM77 °FClear.No wind30%30.01 "Hg10 mi
4:30 PM77 °FSunny.2 mph30%30.01 "Hg10 mi
4:00 PM79 °FSunny.2 mph28%30.01 "Hg10 mi
3:30 PM79 °FSunny.2 mph28%30.01 "Hg10 mi
3:00 PM79 °FSunny.2 mph28%30.01 "Hg10 mi
2:30 PM79 °FSunny.2 mph28%30.01 "Hg10 mi
2:00 PM79 °FSunny.2 mph28%30.01 "Hg10 mi
1:30 PM77 °FSunny.5 mph34%30.01 "Hg10 mi
1:00 PM77 °FSunny.5 mph34%30.01 "Hg10 mi
12:30 PM77 °FSunny.5 mph34%30.04 "Hg10 mi
12:00 PM77 °FSunny.7 mph34%30.04 "Hg10 mi
11:30 AM75 °FSunny.5 mph36%30.04 "Hg10 mi
11:00 AM75 °FSunny.6 mph41%30.07 "Hg10 mi
10:30 AM75 °FSunny.2 mph36%30.04 "Hg10 mi
10:00 AM73 °FSunny.2 mph38%30.04 "Hg10 mi
8:30 AM70 °FSunny.2 mph43%30.04 "Hg10 mi
8:00 AM66 °FSunny.6 mph46%30.04 "Hg10 mi
7:30 AM64 °FSunny.6 mph49%30.01 "Hg10 mi
7:00 AM63 °FSunny.6 mph52%30.01 "Hg10 mi
6:00 AM64 °FClear.No wind49%30.01 "Hg4 mi
5:30 AM63 °FClear.6 mph52%30.01 "Hg10 mi
5:00 AM63 °FClear.6 mph52%29.98 "Hg10 mi
4:30 AM63 °FClear.8 mph52%29.98 "Hg10 mi
4:00 AM63 °FClear.8 mph52%29.98 "Hg10 mi
3:30 AM64 °FClear.8 mph49%29.98 "Hg10 mi
3:00 AM64 °FClear.8 mph49%29.98 "Hg10 mi
2:30 AM64 °FClear.8 mph49%29.98 "Hg10 mi
2:00 AM64 °FClear.8 mph52%29.98 "Hg10 mi
1:30 AM66 °FClear.No wind49%29.98 "Hg10 mi
1:00 AM66 °FClear.5 mph49%29.98 "Hg10 mi
12:00 AM66 °FClear.6 mph49%29.98 "Hg10 mi
11:30 PM
Thu, Nov 26
66 °FClear.5 mph49%29.98 "Hg10 mi
11:00 PM68 °FClear.6 mph49%29.98 "Hg10 mi
Weather by CustomWeather, © 2015

See weather overviewHow to use our weather pages